contact:dominique.lefevre@mio.osupytheas.fr, maurice.libes@osupytheas.fr, didier.mallarino@osupytheas.fr
Project:EMSO http://www.emso-fr.org/EMSO-France
Depth: 2436.0 m
Title:EMSO Ligure Ouest : Data MII capteur AQUADOPP
Date,Latitude,Longitude,X_East,Y_North,Z_Up,Amplitude_X,Amplitude_Y,Amplitude_Z,Batterie,SoundSpeed,Heading,Pitch,Roll,Pressure,TIS,Speed,Direction
, degrees North, degrees East, m.s-1, m.s-1,m.s-1, 1, 1, 1, Volt, m.s-1, degree, degree, degree, dbar, degree_C, m.s-1, degree
2023-09-05T00:04:03,42.805,6.029,-0.036,0.0,-0.043,104.0,103.0,101.0,13.4,1505.2,334.2,-0.8,1.8,2471.547,13.29,0.036,270.0
2023-09-05T00:07:03,42.805,6.029,-0.009,0.02,0.003,103.0,104.0,102.0,13.4,1505.2,350.8,-0.7,1.8,2471.561,13.29,0.021,335.8
2023-09-05T00:10:03,42.805,6.029,-0.029,0.031,-0.021,102.0,105.0,101.0,13.3,1505.2,343.0,-0.8,1.8,2471.533,13.29,0.042,316.9
2023-09-05T00:13:03,42.805,6.029,-0.003,0.025,-0.023,103.0,104.0,102.0,13.4,1505.2,340.5,-0.8,1.8,2471.509,13.29,0.025,353.2
2023-09-05T00:16:03,42.805,6.029,-0.009,0.009,-0.058,104.0,104.0,101.0,13.4,1505.2,351.8,-0.7,1.8,2471.526,13.29,0.012,315.0
2023-09-05T00:19:03,42.805,6.029,-0.025,0.004,-0.006,103.0,104.0,101.0,13.4,1505.2,324.1,-0.8,1.8,2471.507,13.29,0.025,279.1
2023-09-05T00:22:03,42.805,6.029,-0.025,0.028,-0.029,105.0,101.0,102.0,13.4,1505.2,344.8,-0.8,1.8,2471.464,13.29,0.037,318.2
2023-09-05T00:25:03,42.805,6.029,-0.021,0.03,-0.018,104.0,104.0,102.0,13.4,1505.2,326.5,-0.7,1.8,2471.534,13.29,0.036,325.0
2023-09-05T00:28:03,42.805,6.029,-0.023,0.009,0.005,102.0,106.0,102.0,13.4,1505.2,345.2,-0.8,1.8,2471.501,13.29,0.024,291.4
2023-09-05T00:31:03,42.805,6.029,-0.027,0.036,-0.011,103.0,102.0,103.0,13.4,1505.2,350.5,-0.7,1.8,2471.469,13.29,0.045,323.1
2023-09-05T00:34:03,42.805,6.029,-0.013,0.027,-0.016,104.0,102.0,103.0,13.4,1505.2,345.4,-0.8,1.8,2471.498,13.29,0.029,334.3
2023-09-05T00:37:03,42.805,6.029,-0.011,0.018,-0.056,104.0,104.0,101.0,13.4,1505.2,328.2,-0.8,1.8,2471.485,13.29,0.021,328.6
2023-09-05T00:40:03,42.805,6.029,-0.001,0.018,-0.01,105.0,104.0,101.0,13.4,1505.2,327.8,-0.8,1.8,2471.505,13.29,0.018,356.8
2023-09-05T00:43:03,42.805,6.029,-0.033,0.018,-0.042,104.0,105.0,101.0,13.4,1505.2,352.1,-0.8,1.8,2471.505,13.29,0.037,298.6
2023-09-05T00:46:03,42.805,6.029,-0.034,0.013,-0.004,103.0,104.0,103.0,13.4,1505.2,323.3,-0.8,1.8,2471.511,13.29,0.036,290.9
2023-09-05T00:49:03,42.805,6.029,-0.046,0.009,-0.01,105.0,102.0,101.0,13.4,1505.2,331.1,-0.8,1.8,2471.449,13.29,0.046,281.1
2023-09-05T00:52:03,42.805,6.029,-0.021,0.012,-0.019,103.0,104.0,102.0,13.4,1505.2,332.1,-0.7,1.8,2471.459,13.29,0.024,299.7
2023-09-05T00:55:03,42.805,6.029,-0.041,0.022,-0.007,104.0,103.0,101.0,13.4,1505.2,332.4,-0.8,1.8,2471.475,13.29,0.046,298.2
2023-09-05T00:58:03,42.805,6.029,-0.007,0.018,-0.029,103.0,104.0,102.0,13.3,1505.2,347.4,-0.7,1.8,2471.499,13.29,0.019,338.8
2023-09-05T01:04:03,42.805,6.029,0.001,0.003,0.028,104.0,105.0,103.0,13.4,1505.2,341.2,-0.8,1.8,2471.471,13.29,0.003,18.4
2023-09-05T01:07:03,42.805,6.029,-0.02,0.034,-0.013,103.0,103.0,103.0,13.4,1505.2,334.8,-0.8,1.8,2471.495,13.29,0.039,329.5
2023-09-05T01:10:03,42.805,6.029,-0.024,0.036,-0.047,103.0,104.0,101.0,13.4,1505.2,345.0,-0.8,1.8,2471.491,13.29,0.043,326.3
2023-09-05T01:13:03,42.805,6.029,-0.043,0.03,-0.015,104.0,105.0,101.0,13.4,1505.2,328.8,-0.7,1.8,2471.477,13.29,0.052,304.9
2023-09-05T01:16:03,42.805,6.029,-0.028,0.039,-0.025,103.0,105.0,102.0,13.4,1505.2,337.0,-0.8,1.8,2471.525,13.29,0.048,324.3
2023-09-05T01:19:03,42.805,6.029,-0.019,0.019,-0.007,104.0,102.0,103.0,13.3,1505.2,334.2,-0.8,1.8,2471.501,13.29,0.026,315.0
2023-09-05T01:22:03,42.805,6.029,-0.046,0.028,-0.013,103.0,103.0,102.0,13.3,1505.2,339.3,-0.7,1.8,2471.48,13.29,0.053,301.3
2023-09-05T01:25:03,42.805,6.029,-0.01,0.034,-0.011,104.0,104.0,102.0,13.4,1505.2,353.0,-0.8,1.8,2471.455,13.29,0.035,343.6
2023-09-05T01:28:03,42.805,6.029,-0.014,0.024,-0.009,102.0,104.0,102.0,13.4,1505.2,333.8,-0.8,1.8,2471.454,13.29,0.027,329.7
2023-09-05T01:31:03,42.805,6.029,-0.037,0.03,-0.009,104.0,103.0,101.0,13.4,1505.2,354.6,-0.8,1.8,2471.473,13.29,0.047,309.0
2023-09-05T01:34:03,42.805,6.029,-0.031,0.048,-0.008,104.0,103.0,101.0,13.4,1505.2,347.3,-0.7,1.8,2471.466,13.29,0.057,327.1
2023-09-05T01:37:03,42.805,6.029,-0.031,0.024,-0.011,104.0,103.0,102.0,13.3,1505.2,341.2,-0.8,1.8,2471.493,13.29,0.039,307.7
2023-09-05T01:40:03,42.805,6.029,-0.012,0.037,-0.019,103.0,103.0,102.0,13.4,1505.2,349.3,-0.7,1.8,2471.44,13.29,0.038,342.0
2023-09-05T01:43:03,42.805,6.029,-0.022,0.02,-0.002,103.0,104.0,102.0,13.3,1505.2,326.5,-0.8,1.8,2471.437,13.29,0.029,312.3
2023-09-05T01:46:03,42.805,6.029,-0.013,0.02,0.016,105.0,104.0,101.0,13.3,1505.2,331.2,-0.8,1.8,2471.455,13.29,0.023,327.0
2023-09-05T01:49:03,42.805,6.029,-0.029,0.032,0.002,103.0,103.0,103.0,13.4,1505.2,332.5,-0.8,1.8,2471.444,13.29,0.043,317.8
2023-09-05T01:52:03,42.805,6.029,-0.019,0.012,-0.007,105.0,102.0,101.0,13.4,1505.2,352.6,-0.8,1.8,2471.443,13.29,0.022,302.3
2023-09-05T01:55:03,42.805,6.029,-0.02,0.032,-0.011,105.0,103.0,101.0,13.4,1505.2,333.4,-0.8,1.8,2471.448,13.29,0.037,328.0
2023-09-05T01:58:03,42.805,6.029,-0.009,0.021,-0.004,104.0,103.0,102.0,13.3,1505.2,333.4,-0.8,1.8,2471.418,13.29,0.022,336.8
2023-09-05T02:04:03,42.805,6.029,-0.021,0.014,0.003,103.0,103.0,103.0,13.4,1505.2,353.1,-0.8,1.8,2471.477,13.29,0.025,303.7
2023-09-05T02:07:03,42.805,6.029,-0.042,0.005,-0.038,102.0,105.0,100.0,13.4,1505.2,341.5,-0.8,1.8,2471.514,13.29,0.042,276.8
2023-09-05T02:10:03,42.805,6.029,-0.049,0.02,-0.03,103.0,103.0,101.0,13.4,1505.2,331.5,-0.8,1.8,2471.429,13.29,0.052,292.2
2023-09-05T02:13:03,42.805,6.029,-0.033,0.01,-0.01,104.0,103.0,102.0,13.4,1505.2,341.2,-0.8,1.8,2471.454,13.29,0.034,286.9
2023-09-05T02:16:03,42.805,6.029,-0.032,0.004,-0.01,104.0,103.0,102.0,13.4,1505.2,333.8,-0.8,1.9,2471.44,13.29,0.032,277.1
2023-09-05T02:19:03,42.805,6.029,-0.039,0.041,-0.018,103.0,104.0,102.0,13.3,1505.2,342.3,-0.8,1.8,2471.436,13.29,0.056,316.4
2023-09-05T02:22:03,42.805,6.029,-0.011,0.016,0.0,105.0,102.0,103.0,13.4,1505.2,332.1,-0.8,1.8,2471.386,13.29,0.019,325.5
2023-09-05T02:25:03,42.805,6.029,-0.011,0.035,-0.03,104.0,103.0,102.0,13.4,1505.2,351.5,-0.8,1.8,2471.428,13.29,0.036,342.6
2023-09-05T02:28:03,42.805,6.029,-0.018,0.037,-0.033,103.0,105.0,101.0,13.3,1505.2,345.9,-0.8,1.8,2471.411,13.29,0.041,334.1
2023-09-05T02:31:03,42.805,6.029,-0.027,0.027,0.012,104.0,102.0,101.0,13.4,1505.2,343.0,-0.8,1.8,2471.399,13.29,0.038,315.0
2023-09-05T02:34:03,42.805,6.029,-0.044,0.037,0.04,103.0,104.0,101.0,13.3,1505.2,326.8,-0.8,1.8,2471.435,13.29,0.057,310.1
2023-09-05T02:37:03,42.805,6.029,-0.027,0.021,-0.009,103.0,103.0,102.0,13.4,1505.2,337.8,-0.8,1.8,2471.371,13.29,0.034,307.9
2023-09-05T02:40:03,42.805,6.029,-0.034,0.041,-0.036,103.0,103.0,101.0,13.3,1505.2,340.9,-0.7,1.8,2471.434,13.29,0.053,320.3
2023-09-05T02:43:03,42.805,6.029,-0.025,0.03,-0.016,104.0,103.0,102.0,13.3,1505.2,332.5,-0.8,1.8,2471.418,13.29,0.039,320.2
2023-09-05T02:46:03,42.805,6.029,-0.02,0.016,-0.033,101.0,103.0,102.0,13.4,1505.2,347.2,-0.7,1.8,2471.389,13.29,0.025,308.7
2023-09-05T02:49:03,42.805,6.029,-0.022,0.017,-0.001,102.0,103.0,102.0,13.3,1505.2,337.5,-0.8,1.8,2471.426,13.29,0.027,307.7
2023-09-05T02:52:03,42.805,6.029,-0.028,0.022,-0.034,103.0,104.0,101.0,13.4,1505.2,333.4,-0.7,1.8,2471.423,13.29,0.035,308.2
2023-09-05T02:55:03,42.805,6.029,-0.039,0.029,-0.039,103.0,103.0,102.0,13.4,1505.2,343.8,-0.8,1.8,2471.395,13.29,0.048,306.6
2023-09-05T02:58:03,42.805,6.029,-0.028,0.038,0.007,103.0,103.0,101.0,13.4,1505.2,334.4,-0.8,1.8,2471.428,13.29,0.047,323.6
2023-09-05T03:04:03,42.805,6.029,-0.033,0.034,-0.015,103.0,104.0,102.0,13.3,1505.2,353.1,-0.8,1.8,2471.469,13.29,0.047,315.9
2023-09-05T03:07:03,42.805,6.029,-0.017,0.041,0.01,104.0,102.0,103.0,13.3,1505.2,349.5,-0.7,1.8,2471.46,13.29,0.044,337.5
2023-09-05T03:10:03,42.805,6.029,-0.022,0.023,0.009,103.0,103.0,101.0,13.3,1505.2,340.9,-0.7,1.8,2471.438,13.29,0.031,316.3
2023-09-05T03:13:03,42.805,6.029,-0.016,0.032,-0.001,103.0,104.0,100.0,13.4,1505.2,341.1,-0.8,1.8,2471.433,13.29,0.035,333.4
2023-09-05T03:16:03,42.805,6.029,-0.019,0.017,-0.02,103.0,103.0,102.0,13.4,1505.2,351.0,-0.7,1.8,2471.433,13.29,0.025,311.8
2023-09-05T03:19:03,42.805,6.029,-0.027,0.013,0.009,104.0,104.0,102.0,13.3,1505.2,330.8,-0.8,1.8,2471.443,13.29,0.029,295.7
2023-09-05T03:22:03,42.805,6.029,-0.02,0.015,-0.027,103.0,103.0,102.0,13.4,1505.2,339.7,-0.8,1.8,2471.42,13.29,0.025,306.9
2023-09-05T03:25:03,42.805,6.029,-0.026,0.038,-0.006,104.0,103.0,101.0,13.3,1505.2,335.8,-0.7,1.8,2471.429,13.29,0.046,325.6
2023-09-05T03:28:03,42.805,6.029,-0.021,0.015,-0.012,103.0,103.0,102.0,13.3,1505.2,342.8,-0.7,1.8,2471.401,13.29,0.025,305.5
2023-09-05T03:31:03,42.805,6.029,-0.019,0.031,-0.009,103.0,103.0,103.0,13.3,1505.2,337.1,-0.8,1.8,2471.407,13.29,0.036,328.5
2023-09-05T03:34:03,42.805,6.029,-0.019,0.023,-0.031,104.0,103.0,102.0,13.4,1505.2,345.9,-0.8,1.8,2471.421,13.29,0.029,320.4
2023-09-05T03:37:03,42.805,6.029,-0.005,0.02,0.006,104.0,103.0,102.0,13.4,1505.2,341.2,-0.8,1.8,2471.425,13.29,0.02,346.0
2023-09-05T03:40:03,42.805,6.029,-0.015,0.037,0.013,104.0,103.0,101.0,13.4,1505.2,338.2,-0.7,1.8,2471.443,13.29,0.039,337.9
2023-09-05T03:43:03,42.805,6.029,-0.02,0.03,0.016,103.0,103.0,102.0,13.4,1505.2,344.8,-0.8,1.8,2471.369,13.29,0.036,326.3
2023-09-05T03:46:03,42.805,6.029,-0.011,0.013,-0.024,103.0,103.0,101.0,13.4,1505.2,334.7,-0.7,1.8,2471.419,13.29,0.017,319.8
2023-09-05T03:49:03,42.805,6.029,-0.042,0.026,-0.028,101.0,104.0,102.0,13.4,1505.2,331.0,-0.8,1.8,2471.404,13.29,0.049,301.8
2023-09-05T03:52:03,42.805,6.029,-0.037,0.004,-0.023,104.0,103.0,101.0,13.4,1505.2,324.5,-0.8,1.8,2471.4,13.29,0.037,276.2
2023-09-05T03:55:03,42.805,6.029,-0.02,0.031,-0.018,104.0,104.0,102.0,13.4,1505.2,338.0,-0.8,1.8,2471.42,13.29,0.036,327.2
2023-09-05T03:58:03,42.805,6.029,-0.023,0.025,-0.02,103.0,104.0,101.0,13.4,1505.2,333.8,-0.8,1.8,2471.414,13.29,0.033,317.4
2023-09-05T04:04:03,42.805,6.029,-0.022,0.061,0.024,103.0,104.0,101.0,13.3,1505.2,333.4,-0.7,1.8,2471.47,13.29,0.064,340.2
2023-09-05T04:07:03,42.805,6.029,-0.02,0.023,-0.005,103.0,104.0,102.0,13.4,1505.2,345.1,-0.8,1.8,2471.416,13.29,0.03,319.0
2023-09-05T04:10:03,42.805,6.029,-0.04,0.026,0.02,103.0,103.0,101.0,13.3,1505.2,334.8,-0.8,1.8,2471.412,13.29,0.047,303.0
2023-09-05T04:13:03,42.805,6.029,-0.021,0.021,-0.039,104.0,102.0,102.0,13.3,1505.2,352.1,-0.8,1.8,2471.422,13.29,0.029,315.0
2023-09-05T04:16:03,42.805,6.029,-0.013,0.008,0.003,103.0,102.0,102.0,13.4,1505.2,328.5,-0.8,1.8,2471.437,13.29,0.015,301.6
2023-09-05T04:19:03,42.805,6.029,-0.017,0.007,-0.026,103.0,103.0,102.0,13.4,1505.2,327.7,-0.8,1.8,2471.399,13.29,0.018,292.4
2023-09-05T04:22:03,42.805,6.029,-0.005,0.002,-0.024,102.0,103.0,102.0,13.3,1505.2,332.5,-0.8,1.8,2471.37,13.29,0.005,291.8
2023-09-05T04:25:03,42.805,6.029,-0.015,0.016,-0.017,104.0,104.0,101.0,13.4,1505.2,331.0,-0.8,1.8,2471.376,13.29,0.021,316.9
2023-09-05T04:28:03,42.805,6.029,0.003,0.023,-0.011,103.0,103.0,101.0,13.3,1505.2,342.8,-0.8,1.8,2471.383,13.29,0.023,7.4
2023-09-05T04:31:03,42.805,6.029,-0.019,0.019,-0.007,102.0,103.0,102.0,13.3,1505.2,330.3,-0.8,1.8,2471.46,13.29,0.026,315.0
2023-09-05T04:34:03,42.805,6.029,-0.014,0.024,-0.007,102.0,104.0,102.0,13.4,1505.2,333.0,-0.8,1.9,2471.414,13.29,0.027,329.7
2023-09-05T04:37:03,42.805,6.029,-0.01,0.017,-0.026,104.0,103.0,101.0,13.3,1505.2,330.1,-0.8,1.8,2471.384,13.29,0.019,329.5
2023-09-05T04:40:03,42.805,6.029,-0.025,0.018,0.006,104.0,103.0,102.0,13.4,1505.2,326.0,-0.7,1.8,2471.384,13.29,0.03,305.8
2023-09-05T04:43:03,42.805,6.029,-0.013,0.029,0.021,105.0,102.0,101.0,13.3,1505.2,342.8,-0.8,1.8,2471.365,13.29,0.031,335.9
2023-09-05T04:46:03,42.805,6.029,-0.013,0.042,-0.006,103.0,103.0,102.0,13.4,1505.2,344.7,-0.8,1.8,2471.382,13.29,0.043,342.8
2023-09-05T04:49:03,42.805,6.029,-0.043,0.034,-0.02,103.0,103.0,102.0,13.4,1505.2,336.0,-0.8,1.8,2471.389,13.29,0.054,308.3
2023-09-05T04:52:03,42.805,6.029,0.013,0.021,-0.007,102.0,103.0,101.0,13.4,1505.2,344.9,-0.8,1.8,2471.389,13.29,0.024,31.8
2023-09-05T04:55:03,42.805,6.029,-0.012,0.025,0.003,104.0,104.0,100.0,13.4,1505.2,352.1,-0.7,1.8,2471.377,13.29,0.027,334.4
2023-09-05T04:58:03,42.805,6.029,-0.009,0.009,-0.033,103.0,104.0,102.0,13.4,1505.2,327.0,-0.7,1.8,2471.376,13.29,0.012,315.0
2023-09-05T05:04:03,42.805,6.029,0.006,0.003,-0.001,104.0,102.0,101.0,13.3,1505.2,354.4,-0.8,1.8,2471.382,13.29,0.006,63.4
2023-09-05T05:07:03,42.805,6.029,-0.01,0.019,-0.033,104.0,103.0,102.0,13.4,1505.2,325.8,-0.8,1.8,2471.408,13.29,0.021,332.2
2023-09-05T05:10:03,42.805,6.029,-0.008,0.035,0.006,104.0,103.0,101.0,13.3,1505.2,329.0,-0.7,1.8,2471.396,13.29,0.035,347.1
2023-09-05T05:13:03,42.805,6.029,-0.026,0.04,-0.057,104.0,103.0,101.0,13.4,1505.2,346.5,-0.8,1.8,2471.443,13.29,0.047,327.0
2023-09-05T05:16:03,42.805,6.029,-0.035,0.034,-0.028,103.0,103.0,101.0,13.3,1505.2,340.9,-0.8,1.8,2471.376,13.29,0.048,314.2
2023-09-05T05:19:03,42.805,6.029,0.016,0.009,0.004,104.0,104.0,101.0,13.4,1505.2,334.9,-0.8,1.8,2471.391,13.29,0.018,60.6
2023-09-05T05:22:03,42.805,6.029,0.001,0.02,0.005,104.0,103.0,102.0,13.4,1505.2,343.8,-0.8,1.8,2471.383,13.29,0.02,2.9
2023-09-05T05:25:03,42.805,6.029,-0.004,0.011,-0.009,104.0,103.0,101.0,13.4,1505.2,322.5,-0.8,1.8,2471.405,13.29,0.011,340.0
2023-09-05T05:28:03,42.805,6.029,-0.008,0.016,-0.003,101.0,103.0,102.0,13.4,1505.2,325.5,-0.8,1.8,2471.393,13.29,0.017,333.4
2023-09-05T05:31:03,42.805,6.029,-0.026,0.019,-0.034,103.0,103.0,102.0,13.3,1505.2,340.5,-0.8,1.8,2471.391,13.29,0.032,306.2
2023-09-05T05:34:03,42.805,6.029,-0.011,0.008,0.013,103.0,103.0,101.0,13.4,1505.2,347.7,-0.8,1.8,2471.397,13.29,0.013,306.0
2023-09-05T05:37:03,42.805,6.029,-0.02,0.022,0.005,103.0,104.0,102.0,13.4,1505.2,332.5,-0.8,1.8,2471.38,13.29,0.029,317.7
2023-09-05T05:40:03,42.805,6.029,-0.02,0.017,-0.025,103.0,104.0,101.0,13.4,1505.2,349.1,-0.8,1.8,2471.36,13.29,0.026,310.4
2023-09-05T05:43:03,42.805,6.029,0.009,0.015,-0.001,103.0,102.0,102.0,13.3,1505.2,353.5,-0.8,1.8,2471.358,13.29,0.017,31.0
2023-09-05T05:46:03,42.805,6.029,0.007,0.021,-0.008,102.0,103.0,102.0,13.4,1505.2,334.7,-0.8,1.8,2471.378,13.29,0.022,18.4
2023-09-05T05:49:03,42.805,6.029,-0.01,0.013,0.006,104.0,103.0,102.0,13.3,1505.2,330.3,-0.8,1.8,2471.366,13.29,0.016,322.4
2023-09-05T05:52:03,42.805,6.029,-0.019,0.036,-0.019,104.0,103.0,102.0,13.4,1505.2,347.7,-0.8,1.8,2471.384,13.29,0.04,332.2
2023-09-05T05:55:03,42.805,6.029,-0.004,0.026,-0.011,104.0,102.0,102.0,13.3,1505.2,352.7,-0.8,1.8,2471.4,13.29,0.026,351.3
2023-09-05T05:58:03,42.805,6.029,-0.015,0.026,0.017,103.0,103.0,102.0,13.4,1505.2,327.5,-0.8,1.8,2471.378,13.29,0.03,330.0
2023-09-05T06:04:03,42.805,6.029,0.001,0.033,0.008,103.0,103.0,102.0,13.3,1505.2,335.2,-0.7,1.8,2471.427,13.29,0.033,1.7
2023-09-05T06:07:03,42.805,6.029,-0.019,0.027,-0.008,104.0,103.0,102.0,13.3,1505.2,331.6,-0.8,1.8,2471.388,13.29,0.033,324.9
2023-09-05T06:10:03,42.805,6.029,-0.009,0.031,-0.007,103.0,102.0,102.0,13.3,1505.2,341.5,-0.8,1.8,2471.431,13.29,0.032,343.8
2023-09-05T06:13:03,42.805,6.029,-0.014,0.024,0.008,104.0,103.0,101.0,13.4,1505.2,340.5,-0.8,1.8,2471.352,13.29,0.027,329.7
2023-09-05T06:16:03,42.805,6.029,-0.019,0.009,-0.022,103.0,103.0,102.0,13.4,1505.2,341.2,-0.8,1.8,2471.388,13.29,0.021,295.3
2023-09-05T06:19:03,42.805,6.029,-0.002,0.017,-0.01,103.0,104.0,102.0,13.3,1505.2,338.8,-0.8,1.8,2471.407,13.29,0.017,353.3
2023-09-05T06:22:03,42.805,6.029,0.011,0.01,-0.006,103.0,104.0,102.0,13.4,1505.2,336.9,-0.8,1.8,2471.378,13.29,0.014,47.7
2023-09-05T06:25:03,42.805,6.029,-0.012,0.024,0.005,102.0,103.0,102.0,13.4,1505.2,332.5,-0.8,1.8,2471.347,13.29,0.026,333.4
2023-09-05T06:28:03,42.805,6.029,0.012,0.02,-0.009,103.0,103.0,103.0,13.4,1505.2,336.5,-0.8,1.8,2471.377,13.29,0.023,31.0
2023-09-05T06:31:03,42.805,6.029,-0.001,0.016,0.003,104.0,103.0,101.0,13.3,1505.2,349.1,-0.8,1.8,2471.399,13.29,0.016,356.4
2023-09-05T06:34:03,42.805,6.029,-0.009,-0.011,-0.022,103.0,102.0,102.0,13.3,1505.2,347.3,-0.8,1.8,2471.387,13.29,0.014,219.3
2023-09-05T06:37:03,42.805,6.029,0.001,0.011,-0.017,103.0,103.0,101.0,13.4,1505.2,336.6,-0.8,1.8,2471.428,13.29,0.011,5.2
2023-09-05T06:40:03,42.805,6.029,0.016,0.017,0.002,103.0,103.0,101.0,13.4,1505.2,328.5,-0.7,1.8,2471.397,13.29,0.023,43.3
2023-09-05T06:43:03,42.805,6.029,-0.011,0.024,-0.03,104.0,103.0,102.0,13.3,1505.2,334.9,-0.8,1.8,2471.433,13.29,0.026,335.4
2023-09-05T06:46:03,42.805,6.029,0.011,0.012,-0.005,102.0,103.0,102.0,13.4,1505.2,336.5,-0.7,1.8,2471.392,13.29,0.016,42.5
2023-09-05T06:49:03,42.805,6.029,0.005,-0.012,-0.019,103.0,103.0,102.0,13.4,1505.2,345.9,-0.8,1.9,2471.393,13.29,0.013,157.4
2023-09-05T06:52:03,42.805,6.029,-0.015,-0.003,-0.024,103.0,103.0,101.0,13.4,1505.2,332.5,-0.8,1.8,2471.381,13.29,0.015,258.7
2023-09-05T06:55:03,42.805,6.029,-0.013,0.005,-0.005,103.0,102.0,103.0,13.4,1505.2,337.1,-0.7,1.8,2471.371,13.29,0.013,291.0
2023-09-05T06:58:03,42.805,6.029,-0.001,0.013,-0.033,102.0,102.0,102.0,13.4,1505.2,337.9,-0.8,1.8,2471.413,13.29,0.013,355.6
2023-09-05T07:04:03,42.805,6.029,-0.015,0.006,-0.001,103.0,103.0,101.0,13.4,1505.2,331.0,-0.8,1.8,2471.441,13.29,0.016,291.8
2023-09-05T07:07:03,42.805,6.029,0.002,0.022,-0.004,103.0,103.0,102.0,13.4,1505.2,349.1,-0.8,1.8,2471.403,13.29,0.022,5.2
2023-09-05T07:10:03,42.805,6.029,-0.014,0.015,-0.019,103.0,103.0,101.0,13.4,1505.2,338.4,-0.8,1.8,2471.484,13.29,0.02,317.0
2023-09-05T07:13:03,42.805,6.029,-0.003,0.025,-0.004,102.0,103.0,101.0,13.4,1505.2,339.3,-0.8,1.8,2471.434,13.29,0.025,353.2
2023-09-05T07:16:03,42.805,6.029,0.009,0.029,-0.044,103.0,103.0,101.0,13.4,1505.2,344.4,-0.7,1.8,2471.463,13.29,0.03,17.2
2023-09-05T07:19:03,42.805,6.029,0.016,0.014,-0.025,104.0,103.0,101.0,13.3,1505.2,327.9,-0.8,1.8,2471.452,13.29,0.021,48.8
2023-09-05T07:22:03,42.805,6.029,0.006,0.015,-0.017,103.0,103.0,101.0,13.4,1505.2,337.9,-0.8,1.8,2471.414,13.29,0.016,21.8
2023-09-05T07:25:03,42.805,6.029,0.0,0.021,-0.006,104.0,104.0,101.0,13.4,1505.2,334.8,-0.8,1.8,2471.459,13.29,0.021,0.0
2023-09-05T07:28:03,42.805,6.029,0.0,-0.003,-0.019,103.0,104.0,101.0,13.4,1505.2,348.9,-0.8,1.8,2471.461,13.29,0.003,180.0
2023-09-05T07:31:03,42.805,6.029,0.002,0.005,0.01,104.0,103.0,101.0,13.4,1505.2,340.6,-0.7,1.8,2471.435,13.29,0.005,21.8
2023-09-05T07:34:03,42.805,6.029,0.012,0.042,0.023,103.0,103.0,101.0,13.3,1505.2,325.2,-0.8,1.8,2471.457,13.29,0.043,15.9
2023-09-05T07:37:03,42.805,6.029,0.016,0.003,-0.003,103.0,103.0,101.0,13.4,1505.2,332.1,-0.7,1.8,2471.448,13.29,0.016,79.4
2023-09-05T07:40:03,42.805,6.029,0.011,0.002,-0.012,102.0,102.0,102.0,13.4,1505.2,332.9,-0.7,1.8,2471.404,13.29,0.011,79.7
2023-09-05T07:43:03,42.805,6.029,-0.008,0.004,-0.035,103.0,103.0,102.0,13.3,1505.2,338.4,-0.8,1.8,2471.446,13.29,0.008,296.6
2023-09-05T07:46:03,42.805,6.029,0.008,0.017,0.0,105.0,103.0,101.0,13.4,1505.2,339.8,-0.8,1.8,2471.425,13.29,0.018,25.2
2023-09-05T07:49:03,42.805,6.029,0.01,-0.002,-0.007,104.0,102.0,101.0,13.4,1505.2,351.3,-0.8,1.8,2471.398,13.29,0.01,101.3
2023-09-05T07:52:03,42.805,6.029,-0.007,-0.005,-0.008,103.0,103.0,101.0,13.4,1505.2,341.1,-0.8,1.8,2471.436,13.29,0.008,234.5
2023-09-05T07:55:03,42.805,6.029,0.007,0.019,-0.021,103.0,103.0,101.0,13.3,1505.2,325.7,-0.8,1.8,2471.475,13.29,0.02,20.2
2023-09-05T07:58:03,42.805,6.029,0.005,0.026,-0.007,104.0,103.0,100.0,13.4,1505.2,337.5,-0.8,1.8,2471.477,13.29,0.026,10.9
2023-09-05T08:04:03,42.805,6.029,0.015,0.003,-0.019,103.0,104.0,102.0,13.4,1505.2,345.5,-0.8,1.8,2471.478,13.29,0.015,78.7
2023-09-05T08:07:03,42.805,6.029,0.0,-0.004,-0.003,103.0,103.0,101.0,13.4,1505.2,341.9,-0.7,1.8,2471.522,13.29,0.004,180.0
2023-09-05T08:10:03,42.805,6.029,-0.018,0.026,-0.027,103.0,102.0,102.0,13.4,1505.2,333.8,-0.7,1.8,2471.503,13.29,0.031,325.3
2023-09-05T08:13:03,42.805,6.029,-0.009,-0.004,-0.028,103.0,102.0,101.0,13.4,1505.2,333.9,-0.8,1.8,2471.518,13.29,0.009,246.0
2023-09-05T08:16:03,42.805,6.029,-0.001,0.027,0.008,102.0,102.0,102.0,13.4,1505.2,333.0,-0.8,1.8,2471.489,13.29,0.027,357.9
2023-09-05T08:19:03,42.805,6.029,0.001,-0.002,-0.02,103.0,104.0,101.0,13.3,1505.2,332.4,-0.7,1.8,2471.52,13.29,0.002,153.4
2023-09-05T08:22:03,42.805,6.029,-0.011,-0.01,-0.032,103.0,103.0,101.0,13.3,1505.2,333.9,-0.8,1.8,2471.508,13.29,0.014,227.7
2023-09-05T08:25:03,42.805,6.029,0.0,0.008,-0.04,103.0,103.0,101.0,13.3,1505.2,332.2,-0.8,1.8,2471.481,13.29,0.008,0.0
2023-09-05T08:28:03,42.805,6.029,0.002,0.007,-0.044,103.0,103.0,101.0,13.4,1505.2,344.5,-0.8,1.8,2471.482,13.29,0.007,15.9
2023-09-05T08:31:03,42.805,6.029,-0.004,0.021,-0.04,105.0,102.0,101.0,13.3,1505.2,346.5,-0.8,1.8,2471.474,13.29,0.021,349.2
2023-09-05T08:34:03,42.805,6.029,0.014,0.006,-0.012,104.0,103.0,101.0,13.3,1505.2,332.2,-0.7,1.8,2471.5,13.29,0.015,66.8
2023-09-05T08:37:03,42.805,6.029,0.007,0.01,-0.034,104.0,102.0,102.0,13.4,1505.2,336.6,-0.8,1.8,2471.501,13.3,0.012,35.0
2023-09-05T08:40:03,42.805,6.029,-0.019,0.0,-0.009,102.0,103.0,102.0,13.3,1505.2,334.4,-0.7,1.8,2471.48,13.3,0.019,270.0
2023-09-05T08:43:03,42.805,6.029,0.007,0.016,0.0,103.0,103.0,102.0,13.4,1505.2,355.6,-0.8,1.8,2471.522,13.3,0.017,23.6
2023-09-05T08:46:03,42.805,6.029,0.003,0.019,-0.012,103.0,103.0,101.0,13.4,1505.2,326.8,-0.8,1.8,2471.538,13.3,0.019,9.0
2023-09-05T08:49:03,42.805,6.029,-0.001,0.014,0.005,103.0,103.0,100.0,13.3,1505.2,351.7,-0.8,1.8,2471.506,13.3,0.014,355.9
2023-09-05T08:52:03,42.805,6.029,-0.005,-0.003,-0.029,103.0,103.0,100.0,13.4,1505.2,328.2,-0.8,1.9,2471.518,13.3,0.005,239.0
2023-09-05T08:55:03,42.805,6.029,-0.022,0.024,-0.007,101.0,104.0,101.0,13.4,1505.2,330.7,-0.8,1.8,2471.52,13.3,0.032,317.5
2023-09-05T08:58:03,42.805,6.029,-0.012,0.005,-0.017,102.0,103.0,101.0,13.4,1505.2,336.9,-0.8,1.8,2471.518,13.3,0.013,292.6
2023-09-05T09:04:03,42.805,6.029,0.004,0.015,0.008,104.0,103.0,100.0,13.4,1505.2,333.8,-0.7,1.9,2471.517,13.29,0.015,14.9
2023-09-05T09:07:03,42.805,6.029,0.005,0.015,-0.018,102.0,103.0,101.0,13.4,1505.2,350.3,-0.8,1.8,2471.567,13.29,0.015,18.4
2023-09-05T09:10:03,42.805,6.029,-0.013,0.002,-0.022,103.0,103.0,101.0,13.3,1505.2,329.8,-0.8,1.8,2471.533,13.29,0.013,278.7
2023-09-05T09:13:03,42.805,6.029,0.007,0.021,-0.021,103.0,102.0,101.0,13.4,1505.2,343.7,-0.8,1.8,2471.528,13.29,0.022,18.4
2023-09-05T09:16:03,42.805,6.029,0.0,0.002,-0.019,102.0,103.0,101.0,13.3,1505.2,353.1,-0.7,1.8,2471.524,13.3,0.002,0.0
2023-09-05T09:19:03,42.805,6.029,0.033,-0.004,0.011,102.0,103.0,103.0,13.4,1505.2,347.6,-0.8,1.8,2471.514,13.3,0.033,96.9
2023-09-05T09:22:03,42.805,6.029,-0.015,-0.002,-0.014,104.0,102.0,100.0,13.3,1505.2,340.1,-0.8,1.8,2471.509,13.3,0.015,262.4
2023-09-05T09:25:03,42.805,6.029,0.0,0.006,-0.012,102.0,104.0,101.0,13.4,1505.2,346.5,-0.8,1.8,2471.563,13.3,0.006,0.0
2023-09-05T09:28:03,42.805,6.029,-0.002,0.024,-0.023,103.0,103.0,101.0,13.3,1505.2,354.7,-0.8,1.8,2471.526,13.3,0.024,355.2
2023-09-05T09:31:03,42.805,6.029,0.004,0.007,-0.031,102.0,104.0,101.0,13.4,1505.2,347.0,-0.8,1.8,2471.515,13.3,0.008,29.7
2023-09-05T09:34:03,42.805,6.029,0.004,0.003,-0.011,101.0,103.0,102.0,13.4,1505.2,341.9,-0.8,1.8,2471.527,13.3,0.005,53.1
2023-09-05T09:37:03,42.805,6.029,-0.004,-0.004,-0.036,103.0,104.0,101.0,13.4,1505.2,332.9,-0.8,1.9,2471.51,13.3,0.005,225.0
2023-09-05T09:40:03,42.805,6.029,-0.025,0.008,0.005,104.0,102.0,102.0,13.3,1505.2,347.9,-0.8,1.8,2471.523,13.3,0.026,287.7
2023-09-05T09:43:03,42.805,6.029,0.004,-0.008,-0.006,103.0,104.0,101.0,13.4,1505.2,341.5,-0.8,1.8,2471.481,13.3,0.008,153.4
2023-09-05T09:46:03,42.805,6.029,-0.002,0.018,0.011,102.0,102.0,104.0,13.3,1505.2,336.9,-0.8,1.8,2471.557,13.3,0.018,353.7
2023-09-05T09:49:03,42.805,6.029,-0.011,-0.004,-0.03,103.0,101.0,102.0,13.4,1505.2,329.9,-0.8,1.8,2471.505,13.3,0.011,250.0
2023-09-05T09:52:03,42.805,6.029,-0.011,0.019,-0.027,103.0,103.0,102.0,13.4,1505.2,354.4,-0.8,1.8,2471.523,13.3,0.021,329.9
2023-09-05T09:55:03,42.805,6.029,-0.021,0.011,-0.023,102.0,105.0,102.0,13.4,1505.2,335.5,-0.7,1.8,2471.519,13.3,0.023,297.6
2023-09-05T09:58:03,42.805,6.029,-0.004,0.019,-0.013,102.0,102.0,101.0,13.4,1505.2,344.2,-0.8,1.8,2471.493,13.3,0.019,348.1